Location: Alafon
(8.4500°N, 4.2333°E)
Time: 17:40:40
(UTC+00:00)

Courier 1B - All Passes

Search period start: 28 July 2021 00:00
Search period end: 07 August 2021 00:00
Orbit: 962 x 1209 km, 28.3° (Epoch: 28 July)

Date Brightness Start Highest point End Pass type
(mag) Time Alt. Az. Time Alt. Az. Time Alt. Az.
28 Jul - 01:08:06 10° NW 01:13:48 27° NNE 01:19:17 10° ENE night (unlit)
28 Jul - 03:01:36 10° WNW 03:08:17 79° NNE 03:14:46 10° ESE visible
28 Jul - 04:56:50 10° W 05:02:14 28° SSW 05:07:38 10° SSE visible
28 Jul - 14:38:16 10° SSW 14:43:30 19° SSE 14:48:48 10° ESE daylight
28 Jul - 16:30:14 10° SW 16:37:58 65° SSE 16:45:43 10° ENE daylight
28 Jul - 18:25:05 10° W 18:32:33 45° NNW 18:39:51 10° NE visible
28 Jul - 20:22:26 10° WNW 20:27:51 20° NNW 20:33:06 10° NNE visible
28 Jul - 22:20:02 10° NNW 22:23:53 15° N 22:27:37 10° NNE visible
29 Jul - 00:14:24 10° NNW 00:19:42 22° NNE 00:24:48 10° ENE night (unlit)
29 Jul - 02:07:48 10° NW 02:14:30 58° NNE 02:20:54 10° ESE visible
29 Jul - 04:02:24 10° W 04:08:30 40° SSW 04:14:29 10° SE visible
29 Jul - 13:46:00 10° S 13:49:25 13° SSE 13:52:52 10° ESE daylight
29 Jul - 15:36:36 10° SW 15:43:59 47° SSE 15:51:27 10° ENE daylight
29 Jul - 17:30:43 10° WSW 17:38:26 59° NNW 17:46:06 10° NE daylight
29 Jul - 19:27:25 10° WNW 19:33:32 24° NNW 19:39:29 10° NE visible
29 Jul - 21:25:22 10° NW 21:29:28 15° N 21:33:28 10° NNE visible
29 Jul - 23:20:35 10° NNW 23:25:30 19° NNE 23:30:13 10° NE night (unlit)
30 Jul - 01:14:02 10° NW 01:20:37 43° NNE 01:26:52 10° E night (unlit)
30 Jul - 03:08:12 10° WNW 03:14:46 57° SSW 03:21:07 10° SE visible
30 Jul - 05:05:33 10° WSW 05:08:50 14° SSW 05:12:05 10° S visible
30 Jul - 14:43:13 10° SSW 14:49:59 34° SSE 14:56:55 10° E daylight
30 Jul - 16:36:34 10° WSW 16:44:22 78° NNW 16:52:14 10° ENE daylight
30 Jul - 18:32:34 10° W 18:39:15 30° NNW 18:45:51 10° NE visible
30 Jul - 20:30:28 10° NW 20:35:02 16° N 20:39:30 10° NNE visible
30 Jul - 22:26:37 10° NNW 22:31:12 17° N 22:35:37 10° NE visible
31 Jul - 00:20:17 10° NW 00:26:39 34° NNE 00:32:40 10° E night (unlit)
31 Jul - 02:14:08 10° WNW 02:21:02 80° SSW 02:27:35 10° ESE visible
31 Jul - 04:10:13 10° WSW 04:15:00 21° SSW 04:19:42 10° SSE visible
31 Jul - 13:50:07 10° SSW 13:56:00 25° SSE 14:02:03 10° E daylight
31 Jul - 15:42:37 10° WSW 15:50:20 81° SSE 15:58:13 10° ENE daylight
31 Jul - 17:37:54 10° W 17:45:03 38° NNW 17:52:10 10° NE daylight
31 Jul - 19:35:28 10° NW 19:40:37 19° N 19:45:40 10° NNE visible
31 Jul - 21:32:27 10° NNW 21:36:49 16° N 21:41:03 10° NE visible
31 Jul - 23:26:30 10° NW 23:32:33 27° NNE 23:38:18 10° ENE night (unlit)
01 Aug - 01:20:10 10° WNW 01:27:14 75° NNE 01:33:52 10° ESE night (unlit)
01 Aug - 03:15:26 10° W 03:21:13 30° SSW 03:26:50 10° SSE visible
01 Aug - 12:57:26 10° S 13:02:00 17° SSE 13:06:40 10° ESE daylight
01 Aug - 14:48:55 10° SW 14:56:21 60° SSE 15:04:03 10° ENE daylight
01 Aug - 16:43:27 10° W 16:50:53 48° NNW 16:58:25 10° NE daylight
01 Aug - 18:40:29 10° WNW 18:46:13 22° NNW 18:51:55 10° NNE visible
01 Aug - 20:38:01 10° NW 20:42:21 16° N 20:46:38 10° NE visible
01 Aug - 22:32:41 10° NW 22:38:22 23° NNE 22:43:48 10° ENE visible
02 Aug - 00:26:17 10° NW 00:33:21 56° NNE 00:39:59 10° ESE night (unlit)
02 Aug - 02:20:57 10° W 02:27:27 43° SSW 02:33:40 10° SE visible
02 Aug - 04:20:58 10° SW 04:21:39 10° SSW 04:22:19 10° SSW visible
02 Aug - 12:05:50 10° SSE 12:07:57 11° SSE 12:10:06 10° SE daylight
02 Aug - 13:55:26 10° SW 14:02:24 43° SSE 14:09:40 10° E daylight
02 Aug - 15:49:13 10° WSW 15:56:46 63° NNW 16:04:33 10° NE daylight
02 Aug - 17:45:36 10° WNW 17:51:53 26° NNW 17:58:10 10° NE daylight
02 Aug - 19:43:21 10° NW 19:47:54 16° N 19:52:22 10° NNE visible
02 Aug - 21:38:47 10° NNW 21:44:04 20° NNE 21:49:10 10° ENE visible
02 Aug - 23:32:26 10° NW 23:39:23 43° NNE 23:45:55 10° E night (unlit)
03 Aug - 01:26:41 10° WNW 01:33:42 62° SSW 01:40:18 10° SE night (unlit)
03 Aug - 03:23:51 10° WSW 03:27:44 16° SSW 03:31:33 10° S visible
03 Aug - 13:02:13 10° SSW 13:08:28 31° SSE 13:15:01 10° E daylight
03 Aug - 14:55:13 10° WSW 15:02:44 82° NNW 15:10:36 10° ENE daylight
03 Aug - 16:50:54 10° W 16:57:36 31° NNW 17:04:24 10° NE daylight
03 Aug - 18:48:31 10° NW 18:53:25 17° N 18:58:16 10° NNE visible
03 Aug - 20:44:45 10° NNW 20:49:41 18° N 20:54:30 10° NE visible
03 Aug - 22:38:36 10° NW 22:45:18 34° NNE 22:51:39 10° E visible
04 Aug - 00:32:33 10° WNW 00:39:52 86° SSW 00:46:44 10° ESE night (unlit)
04 Aug - 02:28:34 10° W 02:33:54 23° SSW 02:39:03 10° SSE night (unlit)
04 Aug - 12:09:19 10° SSW 12:14:33 22° SSE 12:20:01 10° E daylight
04 Aug - 14:01:26 10° SW 14:08:46 76° SSE 14:16:30 10° ENE daylight
04 Aug - 15:56:23 10° W 16:03:23 39° NNW 16:10:37 10° NE daylight
04 Aug - 17:53:38 10° NW 17:58:58 19° N 18:04:18 10° NNE daylight
04 Aug - 19:50:33 10° NNW 19:55:14 17° N 19:59:50 10° NE visible
04 Aug - 21:44:46 10° NW 21:51:07 28° NNE 21:57:13 10° ENE visible
04 Aug - 23:38:32 10° NW 23:46:00 72° NNE 23:52:58 10° ESE night (unlit)
05 Aug - 01:33:46 10° W 01:40:05 34° SSW 01:46:07 10° SSE night (unlit)
05 Aug - 11:16:57 10° S 11:20:37 15° SSE 11:24:24 10° ESE daylight
05 Aug - 13:07:52 10° SW 13:14:51 55° SSE 13:22:15 10° ENE daylight
05 Aug - 15:02:05 10° W 15:09:15 50° NNW 15:16:46 10° NE daylight
05 Aug - 16:58:47 10° WNW 17:04:34 22° NNW 17:10:25 10° NE daylight
05 Aug - 18:56:09 10° NW 19:00:44 16° N 19:05:17 10° NE visible
05 Aug - 20:50:55 10° NW 20:56:50 23° NNE 21:02:36 10° ENE visible
05 Aug - 22:44:35 10° NW 22:52:01 54° NNE 22:59:00 10° ESE visible
06 Aug - 00:39:16 10° WNW 00:46:17 48° SSW 00:52:53 10° SE night (unlit)
06 Aug - 02:38:00 10° SW 02:40:29 12° SSW 02:42:56 10° S night (unlit)
06 Aug - 12:14:31 10° SW 12:20:59 39° SSE 12:27:48 10° E daylight
06 Aug - 14:08:00 10° WSW 14:15:12 65° NNW 14:22:52 10° NE daylight
06 Aug - 16:04:04 10° WNW 16:10:14 26° NNW 16:16:35 10° NE daylight
06 Aug - 18:01:34 10° NW 18:06:14 17° N 18:10:54 10° NNE daylight
06 Aug - 19:57:00 10° NNW 20:02:29 20° NNE 20:07:52 10° ENE visible
06 Aug - 21:50:43 10° NW 21:57:56 42° NNE 22:04:50 10° E visible
06 Aug - 23:44:57 10° WNW 23:52:26 68° SSW 23:59:26 10° SE night (unlit)
